Wind_Speed
10 9 7 5 3 2 5 1 3 3 3 6 6 5 4 4 2 1 2 12 13 13 9 8 10 9 9 10 8 6 6 10 10 9 10 10 10 9 9 9 9 10 10 11 11 11 11 11 12
11 9 7 1 2 7 5 3 6 7 6 3 5 6 2 2 1 2 4 16 15 14 11 11 8 5 6 8 8 7 8 10 11 10 10 10 9 8 8 8 9 10 10 10 10 10 10 12 12
12 9 4 2 3 7 8 5 7 8 3 2 2 2 4 2 1 0 8 13 16 15 11 11 5 7 6 6 8 8 8 9 10 10 10 9 8 7 8 8 9 9 9 9 9 11 12 12 12
12 9 8 8 7 3 1 3 6 4 3 2 2 2 2 0 4 3 9 14 16 15 12 11 7 5 5 5 6 8 9 8 8 9 9 8 6 7 7 8 8 8 8 9 10 11 11 11 11
16 11 8 8 8 8 6 8 5 1 3 4 2 9 2 3 3 8 9 15 16 15 14 10 7 4 3 4 5 7 9 9 9 8 9 7 6 6 6 6 6 7 8 8 9 9 10 10 10
15 13 9 11 8 9 8 6 6 6 6 4 1 11 4 4 5 10 13 15 17 16 14 11 8 6 6 5 5 6 9 10 10 9 8 7 7 5 5 5 5 6 6 7 8 8 9 9 9
16 12 12 8 4 1 5 5 3 10 8 5 6 6 1 3 5 11 15 14 19 19 15 13 10 7 6 5 6 7 8 10 11 11 9 8 7 5 4 3 3 5 5 6 7 7 7 8 9
17 13 11 8 7 5 10 8 8 10 10 6 5 6 2 3 5 11 13 17 19 19 17 14 11 7 6 5 7 7 8 8 9 9 9 8 7 5 3 2 2 3 4 5 5 5 6 7 8
23 13 11 12 10 8 9 9 9 7 6 7 6 9 3 3 6 9 10 17 18 19 19 14 11 8 7 6 9 8 7 8 9 8 6 5 4 3 1 0 2 3 4 4 5 5 6 8 10
23 20 14 8 13 13 7 8 10 8 7 7 5 8 4 3 5 7 9 12 19 20 19 18 11 9 9 9 10 9 7 8 8 7 5 3 2 1 0 2 3 4 4 5 5 6 8 10 10
26 25 11 15 21 16 12 10 14 9 6 7 10 8 6 6 5 7 10 13 16 20 20 15 16 12 10 12 13 10 8 8 7 5 4 3 3 2 3 3 4 4 5 6 6 8 8 9 10
24 26 12 17 19 16 17 14 11 9 9 10 12 9 6 7 6 6 9 14 18 21 19 17 15 14 11 11 14 12 9 8 8 6 5 5 4 5 5 5 5 6 6 7 8 9 10 10 12
28 23 22 20 21 18 17 16 15 15 10 12 15 13 9 8 7 7 9 15 20 23 21 19 17 13 13 15 14 12 11 11 11 9 8 8 8 8 7 8 7 8 9 9 10 11 11 12 12
28 21 19 27 23 20 20 21 22 16 16 14 16 15 13 10 8 9 9 12 18 22 22 21 18 16 14 16 16 15 13 13 13 12 11 11 10 9 9 9 10 11 11 12 12 12 12 13 12
31 21 26 29 26 26 25 28 29 21 20 15 14 17 15 12 11 9 9 9 14 19 22 21 19 18 16 17 18 18 17 16 14 13 13 12 12 12 11 11 12 12 13 14 14 13 13 14 14
30 27 26 28 24 24 23 34 22 19 23 20 17 17 17 15 14 12 12 12 15 20 22 22 22 19 18 19 19 19 18 17 16 15 14 15 15 15 15 15 15 15 15 15 15 14 14 15 16
32 20 23 16 21 25 26 26 12 17 24 21 19 17 19 17 17 15 15 16 17 18 20 22 22 21 21 21 21 19 17 18 18 18 17 17 17 17 18 18 18 17 18 17 17 16 15 15 16
22 30 16 26 23 24 23 27 23 14 23 25 22 19 22 19 18 18 18 20 20 21 22 22 22 23 23 22 21 20 19 19 20 20 21 19 19 20 20 21 20 21 20 19 18 17 16 17 16
13 23 29 23 22 20 24 24 22 24 29 23 26 22 25 25 20 20 21 22 23 24 25 23 24 23 24 23 22 20 19 21 22 21 23 24 23 23 23 23 23 22 22 21 20 19 18 17 17
19 21 22 20 19 21 25 29 26 20 25 27 25 29 27 29 26 23 22 24 24 25 26 25 25 25 25 24 23 24 24 24 25 26 26 25 25 26 25 25 26 24 24 22 21 20 19 18 17
25 21 17 19 18 21 22 35 32 30 30 28 28 30 33 29 30 26 25 25 26 27 27 26 26 25 27 26 26 28 28 28 27 27 27 26 28 27 28 27 27 26 25 24 22 21 20 19 19
30 28 19 18 14 8 8 8 15 8 12 20 21 27 32 34 30 30 29 27 28 28 27 27 28 28 29 29 30 29 29 29 28 28 29 31 32 29 29 29 28 28 26 25 24 22 22 22 21
22 24 26 24 13 19 20 10 17 7 17 23 19 19 23 35 37 32 31 27 28 29 29 28 28 29 30 31 31 31 32 32 32 32 33 34 33 31 29 30 28 28 28 26 26 24 24 23 24
29 20 20 17 14 10 25 19 20 21 22 18 21 25 24 24 30 38 37 34 31 31 30 31 31 31 32 33 33 34 34 34 35 35 37 36 34 33 32 29 29 30 27 27 27 26 25 26 27
30 26 5 3 5 8 8 16 25 9 11 21 22 23 21 17 17 26 37 41 37 33 31 31 32 32 32 33 34 34 34 34 34 34 36 36 32 33 32 32 32 31 31 29 28 27 28 28 28
39 33 12 7 5 5 19 12 11 11 16 21 17 10 8 12 13 13 22 37 41 37 34 32 33 31 32 33 33 33 33 34 33 33 36 36 34 33 34 34 34 33 34 33 30 29 29 30 30
38 35 23 4 4 2 9 12 17 17 20 22 20 20 20 20 20 20 17 27 38 42 41 38 37 34 36 35 36 36 35 34 33 33 35 36 35 34 36 36 37 36 36 35 34 31 30 31 31
34 39 24 12 6 5 7 17 13 6 4 6 10 11 12 14 17 20 20 19 25 37 40 43 43 41 38 39 40 39 38 37 36 37 38 38 38 35 35 37 38 38 38 38 37 35 33 32 32
39 40 24 19 7 4 0 5 6 15 15 12 15 15 16 17 21 24 26 26 27 27 31 39 44 44 43 42 42 42 43 42 41 40 41 41 42 40 36 38 40 41 41 41 39 38 37 33 33
37 35 34 20 10 14 2 10 10 3 7 10 9 7 11 17 21 24 26 26 27 31 31 33 37 42 46 46 45 45 46 46 46 45 45 44 44 43 41 41 42 42 43 39 40 44 40 33 35
Wind_Direction
242 263 277 311 345 280 266 140 152 200 164 149 160 134 129 159 204 223 290 173 164 162 154 135 130 126 103 83 88 89 96 102 103 104 106 105 108 108 101 92 83 77 71 65 62 61 59 57 55
237 253 257 277 280 286 86 175 108 199 202 155 139 106 168 201 209 338 172 173 165 167 157 149 137 163 114 88 99 99 103 109 111 112 113 118 115 108 94 88 80 72 67 63 59 59 59 56 53
235 242 221 313 277 278 68 84 206 220 223 222 156 172 227 152 176 137 177 174 174 172 165 167 147 145 123 97 106 114 116 114 113 119 126 119 113 102 92 83 76 70 61 61 62 58 55 54 53
234 236 235 225 237 248 189 128 263 244 226 212 256 237 218 82 196 200 179 180 185 172 175 173 156 144 133 117 125 132 122 122 124 129 125 120 110 95 91 82 72 65 61 59 57 57 55 54 53
227 225 213 262 242 246 241 237 220 202 288 210 183 273 275 262 230 204 184 192 192 179 178 179 178 172 173 160 162 145 135 138 132 138 135 127 110 99 92 80 71 64 57 55 54 55 55 53 50
211 200 217 237 238 228 263 244 248 184 216 245 252 261 269 252 222 200 191 197 192 188 186 192 201 210 207 226 199 166 152 150 150 151 145 132 124 121 105 76 57 56 52 51 50 50 48 45 41
201 202 216 227 260 238 240 226 226 188 236 261 219 257 301 271 207 199 201 189 197 194 193 193 210 223 224 206 219 193 175 164 163 160 157 146 136 124 99 68 38 41 43 47 47 43 39 34 28
196 201 225 221 240 269 238 236 187 191 221 257 271 243 287 251 220 214 204 196 202 199 190 199 202 221 236 223 217 213 196 182 175 166 163 153 143 139 110 58 12 21 27 31 32 26 23 19 11
196 196 215 225 230 263 258 239 223 230 252 263 264 264 298 275 241 232 216 204 205 209 199 200 210 213 235 229 215 212 211 197 183 174 169 151 139 147 138 22 347 355 360 1 5 5 3 358 357
200 214 210 224 215 223 231 218 245 227 254 271 265 260 255 265 249 241 224 213 209 211 215 185 210 224 232 226 217 216 212 207 195 192 178 154 166 177 269 303 319 335 334 337 344 345 346 348 341
208 206 210 239 228 226 251 241 244 239 244 315 291 252 258 266 251 242 226 208 217 213 213 220 192 205 223 237 206 205 213 218 214 209 193 184 207 237 273 294 299 305 305 320 325 330 331 328 333
215 214 204 243 240 241 235 239 239 242 236 225 245 266 278 273 254 242 231 207 208 211 214 216 226 198 200 203 212 203 215 224 229 225 212 206 237 258 266 274 276 285 295 306 314 317 320 328 328
228 221 221 236 241 233 232 242 249 251 262 255 250 265 267 264 249 243 230 205 206 204 209 216 224 215 201 188 203 227 226 229 227 228 230 227 231 247 267 278 286 289 296 302 308 312 316 319 320
232 213 212 227 230 233 234 250 244 253 252 258 253 258 253 250 240 242 242 224 212 201 205 217 214 223 220 204 202 216 230 237 234 229 234 247 255 260 268 276 286 292 297 301 305 307 310 311 310
225 219 220 226 233 242 246 249 253 249 253 249 253 257 250 246 239 240 235 226 217 203 208 217 216 221 221 223 214 213 223 231 238 248 253 256 264 272 272 276 281 285 291 297 302 305 306 306 307
222 224 218 233 234 239 245 256 250 255 249 245 251 251 251 244 240 236 231 221 214 209 207 214 221 225 224 226 230 231 224 232 239 244 254 265 270 272 277 281 283 288 290 294 297 298 302 301 303
223 219 208 228 238 242 247 258 273 207 246 241 244 250 253 248 240 241 237 231 225 219 218 219 226 231 230 231 229 230 232 238 244 247 248 254 264 271 273 276 279 281 284 289 291 295 297 294 293
211 213 205 222 240 245 256 257 241 223 241 249 241 243 251 244 245 243 241 236 233 230 228 225 230 234 237 236 238 240 241 247 254 259 265 263 264 265 270 276 282 285 287 289 287 289 288 286 289
242 222 223 225 236 241 253 261 264 252 250 247 237 233 245 247 242 240 245 240 237 234 235 234 233 237 239 243 248 251 254 255 257 259 262 266 266 271 275 280 280 281 281 281 281 283 284 282 282
212 214 207 216 236 244 256 264 265 262 247 249 245 233 237 247 245 240 239 243 243 243 240 240 240 239 243 246 249 252 253 253 257 258 262 268 273 277 280 279 280 278 279 276 277 279 279 279 274
209 216 219 232 242 251 272 270 263 255 263 257 257 250 233 240 244 244 237 242 244 246 246 245 246 246 249 249 249 252 254 258 260 267 273 276 273 273 277 280 279 280 276 277 278 278 277 275 270
206 205 196 217 227 226 235 291 251 240 261 258 259 256 244 238 242 243 244 241 246 247 248 247 249 249 251 252 253 256 259 260 264 265 267 269 272 276 278 279 279 278 276 278 279 277 275 273 268
205 213 209 219 231 246 246 284 272 303 255 256 260 255 247 240 244 243 248 249 251 251 250 249 249 251 253 256 259 260 260 263 264 264 265 266 270 274 275 278 278 275 277 278 278 275 270 268 265
205 202 207 230 249 259 248 236 272 261 259 260 255 266 265 255 248 245 243 246 248 251 251 250 251 252 253 254 256 259 262 264 267 268 269 271 274 275 275 276 274 272 276 276 276 277 274 269 265
196 184 123 201 208 238 223 235 235 227 241 241 241 246 258 260 270 257 244 239 241 248 253 255 255 255 256 257 259 260 264 266 269 270 272 273 274 276 278 277 277 280 281 281 280 277 276 270 266
201 189 172 176 193 210 219 239 251 258 242 241 254 248 244 270 282 269 252 237 238 241 246 252 255 257 258 259 261 263 263 267 270 269 271 274 275 274 274 275 277 278 281 282 282 278 276 273 265
185 193 198 129 91 87 210 245 254 253 262 257 253 253 261 267 270 275 273 247 242 243 246 250 254 255 255 257 260 263 265 265 269 273 274 276 276 274 274 275 275 276 278 279 281 282 276 273 266
211 199 188 186 153 217 236 232 231 186 192 242 222 242 251 264 263 259 254 253 250 248 250 251 251 254 257 257 259 261 262 262 266 270 274 278 279 278 274 272 274 275 275 278 278 282 282 275 265
184 198 198 204 200 177 115 240 242 242 230 213 248 249 260 253 251 246 243 252 253 251 253 251 250 251 254 257 262 263 262 262 264 267 271 274 277 279 275 270 270 272 273 275 282 276 282 278 268
200 195 190 184 193 220 209 242 208 135 182 189 201 230 269 258 252 254 256 262 261 260 261 259 253 251 253 257 259 262 265 267 271 273 271 271 272 274 273 269 269 270 271 269 277 271 281 278 275
Height
3179 3180 3181 3182 3186 3183 3182 3184 3184 3185 3185 3186 3187 3187 3188 3188 3189 3192 3190 3190 3193 3195 3196 3197 3198 3200 3200 3199 3200 3201 3201 3201 3202 3202 3202 3202 3204 3205 3205 3205 3205 3205 3205 3205 3204 3204 3203 3203 3201
3179 3180 3181 3182 3184 3182 3183 3182 3184 3184 3185 3185 3186 3187 3188 3188 3189 3189 3188 3190 3193 3195 3197 3198 3199 3200 3200 3200 3201 3202 3203 3203 3203 3203 3203 3204 3206 3206 3206 3207 3207 3207 3206 3206 3206 3205 3204 3203 3203
3178 3179 3181 3182 3182 3182 3183 3184 3182 3184 3185 3185 3186 3187 3187 3188 3188 3189 3188 3191 3193 3194 3197 3198 3199 3200 3201 3201 3202 3202 3203 3204 3203 3204 3205 3207 3207 3208 3208 3208 3208 3208 3207 3207 3206 3206 3205 3205 3205
3177 3179 3182 3181 3181 3182 3182 3183 3181 3184 3184 3184 3185 3185 3187 3187 3187 3189 3189 3192 3193 3195 3197 3198 3200 3200 3201 3202 3203 3202 3203 3204 3205 3206 3207 3208 3208 3209 3209 3209 3209 3209 3208 3208 3207 3207 3207 3207 3206
3174 3177 3179 3180 3180 3180 3181 3181 3182 3182 3183 3184 3185 3183 3184 3186 3186 3188 3189 3191 3193 3196 3197 3199 3200 3201 3202 3202 3202 3202 3202 3204 3205 3207 3208 3208 3209 3210 3211 3210 3210 3210 3210 3210 3209 3209 3209 3208 3208
3174 3177 3178 3179 3180 3178 3180 3180 3181 3183 3183 3183 3184 3182 3184 3184 3185 3186 3188 3190 3193 3195 3196 3199 3200 3201 3202 3203 3204 3203 3203 3204 3205 3207 3208 3208 3209 3210 3211 3211 3211 3211 3211 3211 3211 3211 3210 3210 3209
3172 3175 3176 3177 3179 3178 3179 3180 3180 3182 3182 3182 3183 3183 3183 3182 3183 3185 3186 3189 3192 3194 3196 3198 3199 3201 3202 3204 3205 3204 3204 3204 3205 3206 3207 3208 3209 3211 3212 3212 3212 3212 3212 3212 3212 3212 3212 3211 3210
3171 3173 3174 3177 3178 3179 3178 3179 3179 3181 3181 3182 3182 3182 3182 3182 3182 3182 3185 3188 3191 3193 3195 3197 3198 3200 3202 3203 3204 3205 3205 3206 3207 3207 3207 3208 3209 3210 3211 3212 3213 3213 3213 3213 3213 3213 3212 3211 3210
3167 3171 3172 3175 3177 3178 3177 3178 3179 3180 3180 3180 3180 3180 3182 3181 3181 3181 3184 3186 3189 3192 3194 3196 3198 3199 3201 3203 3204 3205 3207 3207 3208 3208 3209 3210 3210 3211 3212 3212 3213 3213 3213 3214 3214 3213 3212 3211 3210
3165 3168 3171 3173 3174 3174 3175 3177 3177 3179 3179 3179 3179 3178 3180 3179 3180 3180 3183 3185 3187 3190 3193 3192 3197 3199 3200 3201 3204 3206 3207 3208 3209 3209 3210 3211 3211 3212 3212 3213 3214 3214 3214 3214 3213 3213 3212 3211 3210
3162 3162 3169 3169 3170 3172 3174 3176 3176 3177 3178 3177 3176 3178 3179 3179 3178 3179 3180 3183 3186 3189 3192 3194 3193 3196 3199 3201 3202 3205 3207 3208 3209 3210 3210 3211 3212 3212 3213 3213 3213 3213 3213 3213 3212 3211 3210 3209 3208
3158 3161 3165 3166 3168 3169 3172 3174 3175 3176 3177 3177 3176 3175 3178 3178 3177 3177 3179 3181 3184 3187 3191 3193 3193 3194 3195 3198 3203 3203 3206 3207 3209 3210 3210 3210 3211 3212 3212 3213 3213 3213 3212 3212 3211 3210 3209 3208 3206
3154 3158 3163 3161 3165 3166 3169 3171 3172 3174 3175 3175 3174 3174 3176 3177 3176 3176 3177 3178 3181 3185 3188 3191 3192 3193 3194 3195 3200 3203 3204 3206 3207 3209 3209 3210 3209 3210 3211 3211 3212 3212 3211 3211 3210 3209 3208 3206 3205
3153 3156 3158 3158 3160 3163 3166 3168 3169 3172 3173 3173 3173 3174 3175 3175 3175 3175 3176 3178 3180 3183 3187 3189 3191 3192 3195 3195 3196 3200 3203 3205 3206 3206 3208 3209 3210 3209 3210 3210 3210 3211 3210 3210 3208 3207 3206 3204 3203
3148 3152 3151 3153 3157 3160 3162 3163 3161 3169 3169 3170 3171 3171 3173 3174 3175 3175 3177 3178 3179 3183 3185 3188 3190 3191 3193 3195 3195 3196 3199 3202 3204 3206 3207 3208 3208 3209 3209 3208 3209 3209 3208 3207 3206 3205 3204 3202 3200
3146 3147 3145 3149 3154 3155 3159 3154 3160 3164 3165 3167 3167 3168 3170 3172 3173 3174 3175 3177 3178 3180 3183 3186 3188 3189 3191 3193 3195 3196 3196 3199 3202 3203 3205 3206 3206 3206 3206 3206 3206 3206 3205 3204 3203 3202 3201 3200 3198
3139 3139 3142 3147 3149 3152 3154 3150 3156 3161 3161 3164 3165 3165 3166 3169 3171 3173 3174 3175 3177 3179 3181 3184 3186 3188 3188 3190 3192 3194 3197 3198 3200 3201 3201 3202 3203 3204 3203 3203 3202 3202 3201 3200 3200 3199 3198 3196 3194
3131 3137 3139 3142 3146 3147 3147 3146 3154 3157 3158 3160 3162 3163 3162 3166 3168 3170 3171 3173 3174 3177 3179 3181 3183 3185 3187 3188 3191 3192 3194 3196 3197 3199 3200 3200 3200 3199 3199 3200 3200 3200 3199 3198 3197 3196 3194 3193 3192
3132 3133 3136 3141 3143 3143 3144 3144 3147 3151 3152 3154 3157 3159 3159 3161 3164 3166 3168 3170 3171 3173 3175 3178 3180 3183 3184 3186 3188 3191 3192 3193 3194 3196 3196 3197 3197 3197 3197 3197 3196 3196 3195 3195 3193 3192 3191 3190 3188
3128 3130 3133 3140 3137 3139 3141 3140 3143 3144 3146 3149 3152 3152 3155 3156 3159 3161 3164 3165 3167 3170 3172 3174 3177 3179 3181 3183 3185 3187 3188 3189 3190 3190 3191 3192 3193 3193 3193 3193 3192 3192 3191 3190 3189 3188 3187 3186 3185
3125 3128 3132 3136 3134 3136 3138 3132 3135 3137 3140 3144 3144 3146 3149 3152 3154 3156 3160 3161 3163 3165 3167 3170 3173 3175 3176 3179 3180 3181 3183 3184 3185 3186 3187 3188 3187 3188 3188 3188 3187 3187 3186 3185 3185 3183 3182 3181 3180
3120 3124 3128 3130 3131 3136 3135 3130 3129 3133 3133 3135 3137 3139 3143 3146 3149 3151 3154 3157 3159 3161 3163 3165 3167 3170 3171 3172 3174 3176 3177 3178 3180 3182 3182 3181 3181 3183 3182 3182 3182 3181 3180 3180 3179 3178 3177 3176 3175
3117 3120 3125 3127 3129 3132 3132 3134 3120 3126 3128 3130 3131 3134 3137 3140 3143 3146 3148 3152 3155 3156 3158 3160 3162 3163 3165 3167 3169 3170 3171 3172 3174 3174 3174 3174 3175 3176 3176 3175 3175 3175 3174 3173 3173 3172 3171 3170 3170
3109 3116 3122 3126 3127 3127 3125 3130 3115 3120 3125 3127 3129 3128 3130 3133 3136 3139 3142 3145 3148 3150 3152 3154 3155 3157 3159 3160 3162 3163 3165 3166 3166 3168 3167 3168 3170 3170 3170 3170 3169 3167 3167 3167 3166 3165 3164 3164 3163
3104 3111 3119 3126 3126 3117 3118 3120 3112 3115 3118 3120 3121 3123 3126 3127 3129 3131 3133 3136 3140 3144 3147 3149 3150 3151 3152 3153 3155 3157 3157 3159 3160 3161 3161 3161 3163 3163 3163 3162 3161 3161 3160 3160 3159 3158 3157 3157 3157
3095 3102 3103 3110 3114 3110 3116 3107 3104 3109 3111 3116 3118 3121 3122 3123 3124 3125 3125 3129 3133 3136 3139 3141 3143 3146 3146 3147 3148 3150 3152 3151 3153 3154 3152 3153 3155 3156 3155 3154 3154 3153 3153 3153 3153 3152 3151 3150 3150
3087 3093 3099 3102 3106 3108 3104 3103 3104 3104 3107 3111 3114 3115 3117 3118 3120 3120 3121 3124 3126 3129 3131 3134 3136 3138 3139 3140 3141 3142 3144 3145 3146 3147 3146 3146 3148 3149 3148 3147 3146 3145 3145 3145 3145 3145 3144 3143 3142
3082 3089 3097 3099 3106 3109 3096 3097 3097 3098 3102 3106 3108 3110 3112 3112 3114 3115 3115 3116 3118 3121 3124 3126 3128 3131 3133 3132 3133 3134 3135 3137 3139 3138 3138 3139 3139 3142 3142 3140 3139 3138 3138 3137 3136 3136 3136 3135 3134
3073 3078 3085 3091 3093 3093 3096 3092 3092 3093 3098 3102 3103 3104 3105 3106 3108 3109 3110 3112 3112 3113 3114 3117 3119 3122 3123 3126 3126 3126 3127 3127 3128 3129 3130 3130 3131 3133 3134 3132 3131 3131 3130 3129 3128 3128 3127 3127 3126
3068 3070 3078 3084 3088 3089 3089 3086 3088 3092 3094 3096 3099 3100 3101 3102 3103 3104 3106 3107 3107 3108 3109 3109 3110 3112 3115 3116 3118 3118 3119 3119 3121 3122 3122 3121 3121 3122 3124 3123 3122 3121 3122 3121 3120 3120 3118 3119 3119